| time (UTC) | temp C | wind direction | speed KPH | gust KPH | rain 1hr cm | rain 24hr cm | rain mn cm | humidity % | barometer mb |
| 20260506015600 | 27 | 240 | 8.0 | 17.7 | 0.00 | 0.00 | 0.00 | 25 | 1021.3 |
| 20260506015100 | 27 | 45 | 4.8 | 19.3 | 0.00 | 0.00 | 0.00 | 26 | 1021.4 |
| 20260506014808 | 28 | 319 | 8.0 | 14.5 | 0.00 | 0.00 | 0.00 | 24 | 1021.1 |
| 20260506014654 | 27 | 271 | 9.7 | 19.3 | 0.00 | 0.00 | 0.00 | 24 | 1021.3 |
| 20260506013600 | 28 | 290 | 1.6 | 14.5 | 0.00 | 0.00 | 0.00 | 25 | 1021.3 |
| 20260506013101 | 28 | 330 | 3.2 | 14.5 | 0.00 | 0.00 | 0.00 | 24 | 1021.3 |
| 20260506012600 | 28 | 275 | 1.6 | 9.7 | 0.00 | 0.00 | 0.00 | 24 | 1021.3 |
| 20260506012106 | 28 | 282 | 1.6 | 9.7 | 0.00 | 0.00 | 0.00 | 24 | 1021.3 |
| 20260506011600 | 28 | 298 | 3.2 | 8.0 | 0.00 | 0.00 | 0.00 | 24 | 1021.3 |
| 20260506011326 | 28 | 282 | 3.2 | 8.0 | 0.00 | 0.00 | 0.00 | 24 | 1021.1 |
| 20260506010559 | 28 | 279 | 3.2 | 8.0 | 0.00 | 0.00 | 0.00 | 24 | 1021.1 |
| 20260506010059 | 29 | 25 | 1.6 | 16.1 | 0.00 | 0.00 | 0.00 | 24 | 1021.1 |
| 20260506005600 | 28 | 286 | 0.0 | 16.1 | 0.00 | 0.00 | 0.00 | 23 | 1021.1 |
| 20260506005058 | 28 | 245 | 4.8 | 14.5 | 0.00 | 0.00 | 0.00 | 23 | 1021.1 |
| 20260506004600 | 29 | 266 | 1.6 | 14.5 | 0.00 | 0.00 | 0.00 | 23 | 1021.1 |
| 20260506004059 | 29 | 282 | 1.6 | 11.3 | 0.00 | 0.00 | 0.00 | 23 | 1021.1 |
| 20260506003600 | 28 | 285 | 3.2 | 11.3 | 0.00 | 0.00 | 0.00 | 23 | 1021.1 |
| 20260506003321 | 29 | 324 | 1.6 | 11.3 | 0.00 | 0.00 | 0.00 | 23 | 1021.1 |
| 20260506002558 | 29 | 293 | 0.0 | 9.7 | 0.00 | 0.00 | 0.00 | 23 | 1021.1 |
| 20260506002059 | 29 | 283 | 3.2 | 11.3 | 0.00 | 0.00 | 0.00 | 22 | 1021.3 |
| 20260506001558 | 29 | 238 | 8.0 | 11.3 | 0.00 | 0.00 | 0.00 | 21 | 1021.3 |
| 20260506001059 | 29 | 302 | 3.2 | 6.4 | 0.00 | 0.00 | 0.00 | 22 | 1021.3 |
| 20260506000559 | 29 | 302 | 0.0 | 17.7 | 0.00 | 0.00 | 0.00 | 23 | 1021.4 |
| 20260506000317 | 28 | 288 | 6.4 | 17.7 | 0.00 | 0.00 | 0.00 | 22 | 1021.5 |
| 20260505235558 | 28 | 283 | 3.2 | 8.0 | 0.00 | 0.00 | 0.00 | 22 | 1021.5 |
| 20260505235059 | 28 | 245 | 3.2 | 9.7 | 0.00 | 0.00 | 0.00 | 22 | 1021.5 |
| 20260505234558 | 28 | 261 | 3.2 | 9.7 | 0.00 | 0.00 | 0.00 | 23 | 1021.6 |
| 20260505234057 | 28 | 314 | 4.8 | 8.0 | 0.00 | 0.00 | 0.00 | 22 | 1021.6 |
| 20260505233604 | 28 | 265 | 4.8 | 6.4 | 0.00 | 0.00 | 0.00 | 21 | 1021.6 |
| 20260505233326 | 28 | 182 | 0.0 | 6.4 | 0.00 | 0.00 | 0.00 | 22 | 1021.6 |
| 20260505232559 | 28 | 286 | 3.2 | 9.7 | 0.00 | 0.00 | 0.00 | 21 | 1021.7 |
| 20260505232057 | 28 | 264 | 3.2 | 9.7 | 0.00 | 0.00 | 0.00 | 20 | 1021.6 |
| 20260505231558 | 28 | 293 | 6.4 | 16.1 | 0.00 | 0.00 | 0.00 | 21 | 1021.7 |
| 20260505231057 | 29 | 269 | 4.8 | 16.1 | 0.00 | 0.00 | 0.00 | 22 | 1021.8 |
| 20260505230556 | 30 | 281 | 3.2 | 8.0 | 0.00 | 0.00 | 0.00 | 21 | 1021.8 |
| 20260505230057 | 30 | 281 | 3.2 | 8.0 | 0.00 | 0.00 | 0.00 | 21 | 1021.8 |
| 20260505225557 | 30 | 3 | 0.0 | 8.0 | 0.00 | 0.00 | 0.00 | 22 | 1021.8 |
| 20260505225057 | 30 | 62 | 3.2 | 8.0 | 0.00 | 0.00 | 0.00 | 22 | 1021.8 |
| 20260505224556 | 29 | 269 | 1.6 | 9.7 | 0.00 | 0.00 | 0.00 | 20 | 1021.9 |
| 20260505224056 | 29 | 320 | 1.6 | 9.7 | 0.00 | 0.00 | 0.00 | 21 | 1021.9 |
| 20260505223556 | 29 | 62 | 1.6 | 9.7 | 0.00 | 0.00 | 0.00 | 21 | 1022.0 |
| 20260505223057 | 29 | 326 | 3.2 | 20.9 | 0.00 | 0.00 | 0.00 | 21 | 1022.1 |
| 20260505222556 | 29 | 274 | 3.2 | 20.9 | 0.00 | 0.00 | 0.00 | 21 | 1022.1 |
| 20260505222057 | 29 | 279 | 3.2 | 11.3 | 0.00 | 0.00 | 0.00 | 21 | 1022.1 |
| 20260505221556 | 29 | 283 | 1.6 | 8.0 | 0.00 | 0.00 | 0.00 | 21 | 1022.2 |
| 20260505221056 | 29 | 100 | 4.8 | 8.0 | 0.00 | 0.00 | 0.00 | 19 | 1022.2 |
| 20260505220557 | 29 | 279 | 1.6 | 9.7 | 0.00 | 0.00 | 0.00 | 20 | 1022.2 |
| 20260505220055 | 29 | 337 | 3.2 | 17.7 | 0.00 | 0.00 | 0.00 | 21 | 1022.2 |
| 20260505215556 | 28 | 271 | 6.4 | 19.3 | 0.00 | 0.00 | 0.00 | 20 | 1022.3 |
| 20260505215055 | 28 | 292 | 9.7 | 19.3 | 0.00 | 0.00 | 0.00 | 20 | 1022.3 |
| 20260505214556 | 28 | 185 | 6.4 | 14.5 | 0.00 | 0.00 | 0.00 | 21 | 1022.3 |
| 20260505214055 | 28 | 226 | 6.4 | 14.5 | 0.00 | 0.00 | 0.00 | 20 | 1022.5 |
| 20260505213830 | 28 | 312 | 3.2 | 19.3 | 0.00 | 0.00 | 0.00 | 20 | 1022.6 |
| 20260505213551 | 28 | 321 | 3.2 | 19.3 | 0.00 | 0.00 | 0.00 | 21 | 1022.6 |
| 20260505212600 | 28 | 278 | 11.3 | 17.7 | 0.00 | 0.00 | 0.00 | 19 | 1022.6 |
| 20260505212055 | 28 | 258 | 4.8 | 14.5 | 0.00 | 0.00 | 0.00 | 20 | 1022.7 |
| 20260505211554 | 28 | 282 | 4.8 | 11.3 | 0.00 | 0.00 | 0.00 | 20 | 1022.7 |
| 20260505211322 | 28 | 295 | 6.4 | 17.7 | 0.00 | 0.00 | 0.00 | 19 | 1022.7 |
| 20260505210824 | 28 | 293 | 8.0 | 17.7 | 0.00 | 0.00 | 0.00 | 19 | 1022.9 |
| 20260505210320 | 28 | 281 | 6.4 | 17.7 | 0.00 | 0.00 | 0.00 | 20 | 1022.9 |
| 20260505205553 | 28 | 278 | 6.4 | 19.3 | 0.00 | 0.00 | 0.00 | 20 | 1023.0 |
| 20260505205053 | 28 | 275 | 8.0 | 24.1 | 0.00 | 0.00 | 0.00 | 20 | 1023.0 |
| 20260505204819 | 28 | 268 | 11.3 | 24.1 | 0.00 | 0.00 | 0.00 | 21 | 1023.2 |
| 20260505204053 | 28 | 265 | 12.9 | 19.3 | 0.00 | 0.00 | 0.00 | 21 | 1023.2 |
| 20260505203555 | 28 | 238 | 6.4 | 19.3 | 0.00 | 0.00 | 0.00 | 20 | 1023.2 |
| 20260505203053 | 28 | 278 | 9.7 | 19.3 | 0.00 | 0.00 | 0.00 | 21 | 1023.1 |
| 20260505202554 | 27 | 250 | 9.7 | 19.3 | 0.00 | 0.00 | 0.00 | 22 | 1023.2 |
| 20260505202052 | 27 | 268 | 8.0 | 19.3 | 0.00 | 0.00 | 0.00 | 21 | 1023.2 |
| 20260505202040 | 27 | 288 | 8.0 | 22.5 | 0.00 | 0.00 | 0.00 | 21 | 1023.3 |
| 20260505201053 | 27 | 290 | 6.4 | 22.5 | 0.00 | 0.00 | 0.00 | 21 | 1023.3 |
| 20260505200552 | 28 | 258 | 1.6 | 11.3 | 0.00 | 0.00 | 0.00 | 24 | 1023.3 |
| 20260505200053 | 28 | 55 | 0.0 | 8.0 | 0.00 | 0.00 | 0.00 | 22 | 1023.3 |
| 20260505195812 | 27 | 73 | 1.6 | 8.0 | 0.00 | 0.00 | 0.00 | 25 | 1023.5 |
| 20260505195054 | 28 | 47 | 1.6 | 11.3 | 0.00 | 0.00 | 0.00 | 24 | 1023.5 |
| 20260505194551 | 27 | 195 | 6.4 | 11.3 | 0.00 | 0.00 | 0.00 | 24 | 1023.5 |
| 20260505194053 | 27 | 135 | 3.2 | 11.3 | 0.00 | 0.00 | 0.00 | 25 | 1023.5 |
| 20260505193552 | 27 | 118 | 4.8 | 11.3 | 0.00 | 0.00 | 0.00 | 26 | 1023.6 |
| 20260505193052 | 26 | 138 | 6.4 | 9.7 | 0.00 | 0.00 | 0.00 | 26 | 1023.5 |
| 20260505192816 | 26 | 172 | 6.4 | 9.7 | 0.00 | 0.00 | 0.00 | 26 | 1023.6 |
| 20260505192053 | 26 | 193 | 6.4 | 9.7 | 0.00 | 0.00 | 0.00 | 26 | 1023.7 |
| 20260505191554 | 26 | 90 | 6.4 | 9.7 | 0.00 | 0.00 | 0.00 | 26 | 1023.8 |
| 20260505191052 | 26 | 107 | 4.8 | 8.0 | 0.00 | 0.00 | 0.00 | 27 | 1023.9 |
| 20260505190557 | 26 | 85 | 3.2 | 9.7 | 0.00 | 0.00 | 0.00 | 28 | 1023.9 |
| 20260505190052 | 25 | 133 | 4.8 | 11.3 | 0.00 | 0.00 | 0.00 | 28 | 1024.0 |
| 20260505185552 | 25 | 166 | 1.6 | 11.3 | 0.00 | 0.00 | 0.00 | 29 | 1024.0 |
| 20260505185051 | 25 | 130 | 6.4 | 9.7 | 0.00 | 0.00 | 0.00 | 29 | 1024.2 |
| 20260505184551 | 24 | 124 | 1.6 | 8.0 | 0.00 | 0.00 | 0.00 | 30 | 1024.1 |
| 20260505184051 | 24 | 217 | 3.2 | 8.0 | 0.00 | 0.00 | 0.00 | 29 | 1024.2 |
| 20260505183547 | 24 | 59 | 1.6 | 14.5 | 0.00 | 0.00 | 0.00 | 30 | 1024.4 |
| 20260505183051 | 24 | 96 | 6.4 | 14.5 | 0.00 | 0.00 | 0.00 | 29 | 1024.4 |
| 20260505182556 | 24 | 100 | 3.2 | 11.3 | 0.00 | 0.00 | 0.00 | 32 | 1024.4 |
| 20260505182052 | 23 | 82 | 4.8 | 14.5 | 0.00 | 0.00 | 0.00 | 32 | 1024.4 |
| 20260505181550 | 23 | 62 | 4.8 | 14.5 | 0.00 | 0.00 | 0.00 | 32 | 1024.5 |
| 20260505181100 | 23 | 100 | 4.8 | 14.5 | 0.00 | 0.00 | 0.00 | 32 | 1024.6 |
| 20260505180550 | 23 | 130 | 4.8 | 9.7 | 0.00 | 0.00 | 0.00 | 33 | 1024.6 |
| 20260505180310 | 23 | 134 | 4.8 | 8.0 | 0.00 | 0.00 | 0.00 | 34 | 1024.6 |
| 20260505175547 | 22 | 71 | 4.8 | 11.3 | 0.00 | 0.00 | 0.00 | 35 | 1024.7 |
| 20260505175046 | 22 | 93 | 4.8 | 11.3 | 0.00 | 0.00 | 0.00 | 34 | 1024.7 |
| 20260505174550 | 22 | 111 | 4.8 | 9.7 | 0.00 | 0.00 | 0.00 | 36 | 1024.8 |
| 20260505174529 | 21 | 59 | 4.8 | 11.3 | 0.00 | 0.00 | 0.00 | 39 | 1024.8 |
| 20260505174147 | 22 | 58 | 3.2 | 9.7 | 0.00 | 0.00 | 0.00 | 39 | 1024.8 |
| 20260505173050 | 21 | 80 | 1.6 | 11.3 | 0.00 | 0.00 | 0.00 | 40 | 1024.9 |
| 20260505172549 | 21 | 110 | 3.2 | 11.3 | 0.00 | 0.00 | 0.00 | 40 | 1024.9 |
| 20260505172054 | 21 | 65 | 4.8 | 9.7 | 0.00 | 0.00 | 0.00 | 42 | 1024.9 |
| 20260505171545 | 21 | 133 | 6.4 | 9.7 | 0.00 | 0.00 | 0.00 | 42 | 1024.9 |
| 20260505171046 | 20 | 71 | 4.8 | 8.0 | 0.00 | 0.00 | 0.00 | 41 | 1024.9 |
| 20260505170548 | 20 | 52 | 6.4 | 9.7 | 0.00 | 0.00 | 0.00 | 41 | 1025.0 |
| 20260505170050 | 20 | 113 | 4.8 | 9.7 | 0.00 | 0.00 | 0.00 | 41 | 1025.0 |
| 20260505165548 | 20 | 41 | 4.8 | 8.0 | 0.00 | 0.00 | 0.00 | 43 | 1025.1 |
| 20260505165050 | 20 | 117 | 1.6 | 8.0 | 0.00 | 0.00 | 0.00 | 40 | 1025.2 |
| 20260505164549 | 20 | 114 | 3.2 | 8.0 | 0.00 | 0.00 | 0.00 | 41 | 1025.2 |
| 20260505164048 | 19 | 92 | 3.2 | 8.0 | 0.00 | 0.00 | 0.00 | 41 | 1025.1 |
| 20260505163553 | 19 | 76 | 3.2 | 8.0 | 0.00 | 0.00 | 0.00 | 41 | 1025.1 |
| 20260505163308 | 19 | 89 | 3.2 | 8.0 | 0.00 | 0.00 | 0.00 | 42 | 1025.2 |
| 20260505162548 | 18 | 72 | 3.2 | 11.3 | 0.00 | 0.00 | 0.00 | 44 | 1025.1 |
| 20260505162110 | 18 | 62 | 3.2 | 11.3 | 0.00 | 0.00 | 0.00 | 44 | 1025.2 |
| 20260505161552 | 18 | 124 | 3.2 | 9.7 | 0.00 | 0.00 | 0.00 | 44 | 1025.2 |
| 20260505161053 | 18 | 116 | 3.2 | 9.7 | 0.00 | 0.00 | 0.00 | 48 | 1025.1 |
| 20260505160858 | 18 | 55 | 3.2 | 8.0 | 0.00 | 0.00 | 0.00 | 47 | 1025.3 |
| 20260505153047 | 17 | 111 | 0.0 | 4.8 | 0.00 | 0.00 | 0.00 | 49 | 1025.4 |
| 20260505152546 | 16 | 147 | 0.0 | 4.8 | 0.00 | 0.00 | 0.00 | 50 | 1025.4 |
| 20260505152046 | 16 | 125 | 0.0 | 3.2 | 0.00 | 0.00 | 0.00 | 52 | 1025.5 |
| 20260505151548 | 16 | 106 | 0.0 | 0.0 | 0.00 | 0.00 | 0.00 | 53 | 1025.4 |
| 20260505151305 | 16 | 111 | 0.0 | 0.0 | 0.00 | 0.00 | 0.00 | 55 | 1025.5 |
| 20260505150543 | 15 | 130 | 0.0 | 0.0 | 0.00 | 0.00 | 0.00 | 56 | 1025.6 |
| 20260505130305 | 6 | 282 | 0.0 | 0.0 | 0.00 | 0.00 | 0.00 | 82 | 1024.9 |
| 20260505124545 | 6 | 282 | 0.0 | 0.0 | 0.00 | 0.00 | 0.00 | 80 | 1024.7 |
| 20260505124043 | 6 | 282 | 0.0 | 0.0 | 0.00 | 0.00 | 0.00 | 80 | 1024.8 |
| 20260505123542 | 6 | 250 | 0.0 | 0.0 | 0.00 | 0.00 | 0.00 | 79 | 1024.7 |
| 20260505123042 | 6 | 250 | 0.0 | 0.0 | 0.00 | 0.00 | 0.00 | 78 | 1024.7 |
| 20260505122542 | 6 | 250 | 0.0 | 0.0 | 0.00 | 0.00 | 0.00 | 79 | 1024.7 |
| 20260505122042 | 7 | 250 | 0.0 | 0.0 | 0.00 | 0.00 | 0.00 | 78 | 1024.6 |
| 20260505121542 | 7 | 250 | 0.0 | 0.0 | 0.00 | 0.00 | 0.00 | 78 | 1024.7 |
| 20260505121042 | 7 | 226 | 0.0 | 0.0 | 0.00 | 0.00 | 0.00 | 78 | 1024.6 |
| 20260505120543 | 7 | 226 | 0.0 | 0.0 | 0.00 | 0.00 | 0.00 | 77 | 1024.6 |
| 20260505120042 | 7 | 226 | 0.0 | 0.0 | 0.00 | 0.00 | 0.00 | 76 | 1024.6 |
| 20260505115543 | 7 | 226 | 0.0 | 0.0 | 0.00 | 0.00 | 0.00 | 75 | 1024.6 |
| 20260505115041 | 7 | 226 | 0.0 | 0.0 | 0.00 | 0.00 | 0.00 | 75 | 1024.5 |
| 20260505114542 | 7 | 214 | 0.0 | 0.0 | 0.00 | 0.00 | 0.00 | 75 | 1024.5 |
| 20260505114041 | 7 | 214 | 0.0 | 0.0 | 0.00 | 0.00 | 0.00 | 75 | 1024.6 |
| 20260505113805 | 7 | 214 | 0.0 | 0.0 | 0.00 | 0.00 | 0.00 | 74 | 1024.4 |
| 20260505113042 | 8 | 212 | 0.0 | 0.0 | 0.00 | 0.00 | 0.00 | 72 | 1024.4 |
| 20260505112541 | 8 | 212 | 0.0 | 1.6 | 0.00 | 0.00 | 0.00 | 71 | 1024.4 |
| 20260505112304 | 8 | 212 | 0.0 | 1.6 | 0.00 | 0.00 | 0.00 | 72 | 1024.4 |
| 20260505111540 | 8 | 212 | 0.0 | 3.2 | 0.00 | 0.00 | 0.00 | 72 | 1024.4 |
| 20260505111039 | 8 | 214 | 1.6 | 3.2 | 0.00 | 0.00 | 0.00 | 73 | 1024.4 |
| 20260505111023 | 8 | 210 | 0.0 | 0.0 | 0.00 | 0.00 | 0.00 | 72 | 1024.4 |
| 20260505102039 | 10 | 234 | 0.0 | 3.2 | 0.00 | 0.00 | 0.00 | 67 | 1024.1 |
| 20260505101539 | 10 | 221 | 1.6 | 3.2 | 0.00 | 0.00 | 0.00 | 66 | 1024.0 |
| 20260505101039 | 10 | 180 | 3.2 | 3.2 | 0.00 | 0.00 | 0.00 | 67 | 1024.0 |
| 20260505100539 | 10 | 133 | 0.0 | 1.6 | 0.00 | 0.00 | 0.00 | 66 | 1023.9 |
| 20260505100044 | 10 | 214 | 0.0 | 3.2 | 0.00 | 0.00 | 0.00 | 65 | 1023.9 |
| 20260505095539 | 10 | 214 | 0.0 | 3.2 | 0.00 | 0.00 | 0.00 | 65 | 1023.9 |
| 20260505095039 | 10 | 209 | 0.0 | 1.6 | 0.00 | 0.00 | 0.00 | 65 | 1023.9 |
| 20260505094539 | 10 | 207 | 0.0 | 1.6 | 0.00 | 0.00 | 0.00 | 64 | 1023.9 |
| 20260505094040 | 10 | 209 | 0.0 | 1.6 | 0.00 | 0.00 | 0.00 | 64 | 1023.8 |
| 20260505093538 | 10 | 216 | 1.6 | 1.6 | 0.00 | 0.00 | 0.00 | 63 | 1023.8 |
| 20260505093038 | 11 | 213 | 0.0 | 1.6 | 0.00 | 0.00 | 0.00 | 63 | 1023.7 |
| 20260505092538 | 11 | 203 | 0.0 | 3.2 | 0.00 | 0.00 | 0.00 | 63 | 1023.7 |
| 20260505092038 | 11 | 196 | 1.6 | 3.2 | 0.00 | 0.00 | 0.00 | 62 | 1023.8 |
| 20260505091539 | 11 | 213 | 0.0 | 3.2 | 0.00 | 0.00 | 0.00 | 62 | 1023.7 |
| 20260505091038 | 11 | 212 | 1.6 | 3.2 | 0.00 | 0.00 | 0.00 | 62 | 1023.7 |
| 20260505090538 | 11 | 166 | 1.6 | 3.2 | 0.00 | 0.00 | 0.00 | 61 | 1023.6 |
| 20260505090037 | 11 | 206 | 1.6 | 3.2 | 0.00 | 0.00 | 0.00 | 61 | 1023.6 |
| 20260505085802 | 11 | 224 | 0.0 | 0.0 | 0.00 | 0.00 | 0.00 | 62 | 1023.6 |
| 20260505085038 | 11 | 217 | 0.0 | 0.0 | 0.00 | 0.00 | 0.00 | 62 | 1023.5 |
| 20260505084806 | 11 | 209 | 0.0 | 0.0 | 0.00 | 0.00 | 0.00 | 62 | 1023.6 |
| 20260505084043 | 11 | 233 | 0.0 | 0.0 | 0.00 | 0.00 | 0.00 | 61 | 1023.5 |
| 20260505083538 | 11 | 227 | 0.0 | 3.2 | 0.00 | 0.00 | 0.00 | 60 | 1023.5 |
| 20260505083038 | 11 | 228 | 0.0 | 4.8 | 0.00 | 0.00 | 0.00 | 59 | 1023.5 |
| 20260505082536 | 11 | 271 | 1.6 | 4.8 | 0.00 | 0.00 | 0.00 | 60 | 1023.4 |
| 20260505082037 | 11 | 226 | 1.6 | 3.2 | 0.00 | 0.00 | 0.00 | 61 | 1023.4 |
| 20260505081536 | 11 | 261 | 0.0 | 3.2 | 0.00 | 0.00 | 0.00 | 60 | 1023.3 |
| 20260505081038 | 12 | 199 | 1.6 | 4.8 | 0.00 | 0.00 | 0.00 | 59 | 1023.4 |
| 20260505080759 | 12 | 221 | 1.6 | 4.8 | 0.00 | 0.00 | 0.00 | 59 | 1023.4 |
| 20260505080305 | 12 | 203 | 0.0 | 3.2 | 0.00 | 0.00 | 0.00 | 59 | 1023.3 |
| 20260505075536 | 12 | 212 | 3.2 | 3.2 | 0.00 | 0.00 | 0.00 | 58 | 1023.3 |
| 20260505075257 | 12 | 207 | 1.6 | 3.2 | 0.00 | 0.00 | 0.00 | 58 | 1023.3 |
| 20260505074536 | 12 | 204 | 1.6 | 6.4 | 0.00 | 0.00 | 0.00 | 57 | 1023.3 |
| 20260505074035 | 12 | 190 | 4.8 | 6.4 | 0.00 | 0.00 | 0.00 | 57 | 1023.2 |
| 20260505073538 | 12 | 212 | 1.6 | 4.8 | 0.00 | 0.00 | 0.00 | 57 | 1023.2 |
| 20260505073529 | 12 | 202 | 1.6 | 3.2 | 0.00 | 0.00 | 0.00 | 57 | 1023.2 |
| 20260505072537 | 12 | 219 | 1.6 | 3.2 | 0.00 | 0.00 | 0.00 | 56 | 1023.2 |
| 20260505072520 | 13 | 207 | 3.2 | 4.8 | 0.00 | 0.00 | 0.00 | 55 | 1023.1 |
| 20260505071535 | 13 | 213 | 3.2 | 4.8 | 0.00 | 0.00 | 0.00 | 55 | 1023.0 |
| 20260505071036 | 13 | 165 | 3.2 | 4.8 | 0.00 | 0.00 | 0.00 | 54 | 1022.9 |
| 20260505070535 | 13 | 217 | 1.6 | 4.8 | 0.00 | 0.00 | 0.00 | 54 | 1022.9 |
| 20260505070036 | 13 | 221 | 1.6 | 4.8 | 0.00 | 0.00 | 0.00 | 54 | 1022.7 |
| 20260505065756 | 13 | 259 | 0.0 | 3.2 | 0.00 | 0.00 | 0.00 | 53 | 1022.7 |
| 20260505065036 | 13 | 251 | 1.6 | 3.2 | 0.00 | 0.00 | 0.00 | 54 | 1022.6 |
| 20260505064534 | 13 | 269 | 1.6 | 3.2 | 0.00 | 0.00 | 0.00 | 52 | 1022.6 |
| 20260505064034 | 14 | 190 | 1.6 | 4.8 | 0.00 | 0.00 | 0.00 | 52 | 1022.6 |
| 20260505063534 | 14 | 213 | 1.6 | 4.8 | 0.00 | 0.00 | 0.00 | 51 | 1022.4 |
| 20260505063034 | 14 | 235 | 0.0 | 3.2 | 0.00 | 0.00 | 0.00 | 51 | 1022.5 |
| 20260505062535 | 14 | 165 | 0.0 | 3.2 | 0.00 | 0.00 | 0.00 | 51 | 1022.5 |
| 20260505062034 | 14 | 219 | 1.6 | 3.2 | 0.00 | 0.00 | 0.00 | 52 | 1022.4 |
| 20260505061805 | 14 | 228 | 0.0 | 4.8 | 0.00 | 0.00 | 0.00 | 51 | 1022.3 |
| 20260505061033 | 15 | 207 | 0.0 | 4.8 | 0.00 | 0.00 | 0.00 | 50 | 1022.3 |
| 20260505060535 | 15 | 172 | 1.6 | 4.8 | 0.00 | 0.00 | 0.00 | 49 | 1022.2 |
| 20260505060300 | 15 | 190 | 1.6 | 4.8 | 0.00 | 0.00 | 0.00 | 47 | 1022.2 |
| 20260505055533 | 16 | 172 | 0.0 | 3.2 | 0.00 | 0.00 | 0.00 | 46 | 1022.1 |
| 20260505055034 | 16 | 161 | 0.0 | 4.8 | 0.00 | 0.00 | 0.00 | 45 | 1022.1 |
| 20260505054533 | 16 | 144 | 3.2 | 4.8 | 0.00 | 0.00 | 0.00 | 47 | 1022.1 |
| 20260505054033 | 16 | 141 | 0.0 | 4.8 | 0.00 | 0.00 | 0.00 | 47 | 1021.9 |
| 20260505053758 | 16 | 117 | 1.6 | 3.2 | 0.00 | 0.00 | 0.00 | 46 | 1021.9 |
| 20260505053033 | 16 | 168 | 0.0 | 3.2 | 0.00 | 0.00 | 0.00 | 46 | 1021.9 |
| 20260505052752 | 16 | 152 | 0.0 | 3.2 | 0.00 | 0.00 | 0.00 | 47 | 1021.8 |
| 20260505052034 | 16 | 157 | 1.6 | 1.6 | 0.00 | 0.00 | 0.00 | 46 | 1021.7 |
| 20260505051532 | 16 | 155 | 0.0 | 1.6 | 0.00 | 0.00 | 0.00 | 47 | 1021.7 |
| 20260505051033 | 16 | 164 | 0.0 | 3.2 | 0.00 | 0.00 | 0.00 | 48 | 1021.7 |
| 20260505050533 | 16 | 192 | 1.6 | 3.2 | 0.00 | 0.00 | 0.00 | 47 | 1021.7 |
| 20260505041531 | 18 | 234 | 1.6 | 3.2 | 0.00 | 0.00 | 0.00 | 43 | 1021.0 |
| 20260505041031 | 18 | 234 | 1.6 | 3.2 | 0.00 | 0.00 | 0.00 | 44 | 1020.9 |
| 20260505040530 | 18 | 233 | 0.0 | 3.2 | 0.00 | 0.00 | 0.00 | 45 | 1020.8 |
| 20260505040032 | 18 | 257 | 3.2 | 3.2 | 0.00 | 0.00 | 0.00 | 43 | 1020.7 |
| 20260505035530 | 18 | 214 | 0.0 | 0.0 | 0.00 | 0.00 | 0.00 | 44 | 1020.7 |
| 20260505035032 | 18 | 214 | 0.0 | 0.0 | 0.00 | 0.00 | 0.00 | 43 | 1020.6 |
| 20260505034802 | 18 | 214 | 0.0 | 0.0 | 0.00 | 0.00 | 0.00 | 45 | 1020.5 |
| 20260505034030 | 18 | 214 | 0.0 | 0.0 | 0.00 | 0.00 | 0.00 | 44 | 1020.4 |
| 20260505033531 | 19 | 214 | 0.0 | 1.6 | 0.00 | 0.00 | 0.00 | 44 | 1020.4 |
| 20260505033030 | 19 | 214 | 0.0 | 3.2 | 0.00 | 0.00 | 0.00 | 41 | 1020.3 |
| 20260505032531 | 19 | 220 | 1.6 | 3.2 | 0.00 | 0.00 | 0.00 | 42 | 1020.2 |
| 20260505032029 | 20 | 238 | 1.6 | 4.8 | 0.00 | 0.00 | 0.00 | 42 | 1020.2 |
| 20260505031532 | 20 | 209 | 0.0 | 4.8 | 0.00 | 0.00 | 0.00 | 39 | 1020.1 |
| 20260505031030 | 20 | 210 | 1.6 | 3.2 | 0.00 | 0.00 | 0.00 | 39 | 1019.9 |
| 20260505030803 | 20 | 231 | 1.6 | 3.2 | 0.00 | 0.00 | 0.00 | 40 | 1019.9 |
| 20260505030029 | 20 | 220 | 0.0 | 3.2 | 0.00 | 0.00 | 0.00 | 38 | 1019.8 |
| 20260505025529 | 21 | 252 | 1.6 | 3.2 | 0.00 | 0.00 | 0.00 | 39 | 1019.8 |
| 20260505025030 | 21 | 219 | 0.0 | 1.6 | 0.00 | 0.00 | 0.00 | 37 | 1019.6 |
| 20260505024528 | 21 | 219 | 0.0 | 1.6 | 0.00 | 0.00 | 0.00 | 37 | 1019.8 |
| 20260505024259 | 21 | 223 | 1.6 | 3.2 | 0.00 | 0.00 | 0.00 | 37 | 1019.6 |
| 20260505023529 | 21 | 223 | 0.0 | 3.2 | 0.00 | 0.00 | 0.00 | 37 | 1019.6 |
| 20260505023306 | 21 | 234 | 0.0 | 3.2 | 0.00 | 0.00 | 0.00 | 37 | 1019.5 |
| 20260505022529 | 22 | 243 | 1.6 | 3.2 | 0.00 | 0.00 | 0.00 | 37 | 1019.6 |
| 20260505022030 | 22 | 255 | 1.6 | 3.2 | 0.00 | 0.00 | 0.00 | 36 | 1019.5 |
| 20260505021529 | 23 | 258 | 0.0 | 3.2 | 0.00 | 0.00 | 0.00 | 34 | 1019.4 |
| 20260505021028 | 23 | 255 | 1.6 | 3.2 | 0.00 | 0.00 | 0.00 | 34 | 1019.4 |
| 20260505020528 | 24 | 278 | 0.0 | 1.6 | 0.00 | 0.00 | 0.00 | 33 | 1019.4 |
| 20260505020516 | 25 | 261 | 0.0 | 1.6 | 0.00 | 0.00 | 0.00 | 31 | 1019.5 |